Regional Weather Roundup
Issued by NWS Albany, NY

Home | Current Version | Previous Version | Text Only | Print | Product List | Glossary On
Versions: 1 2 3 4 5 6 7 8 9 10 11 12 13 14 15 16 17 18 19 20 21 22 23 24 25 26 27 28 29 30 31 32 33 34 35 36 37 38 39 40 41 42 43 44 45 46 47 48 49 50
000
ASUS41 KALY 300410
RWRALY

NEW YORK STATE HOURLY WEATHER ROUNDUP
NATIONAL WEATHER SERVICE ALBANY NY
1200 AM EDT SAT APR 30 2016

NOTE: "FAIR" INDICATES FEW OR NO CLOUDS BELOW 12,000 FEET WITH NO
SIGNIFICANT WEATHER AND/OR NO OBSTRUCTIONS TO VISIBILITY.

NYZ032-033-038>043-046>054-057>066-NYZ062>081-082-084-300500-
EAST


CITY           SKY/WX    TMP DP  RH WIND       PRES   REMARKS
ALBANY         CLOUDY    52  40  63 CALM      30.13R
GLENS FALLS    CLOUDY    49  26  41 CALM      30.13R
POUGHKEEPSIE   LGT RAIN  47  41  80 W3        30.17R
NEWBURGH       MOCLDY    45  43  93 CALM      30.17R
MONTGOMERY     LGT RAIN  45  41  86 NW5       30.17R
WHITE PLAINS   CLOUDY    44  41  89 CALM      30.14S
ISLIP          CLOUDY    45  39  79 E8        30.14F
NEW YORK CITY  CLOUDY    48  33  56 E9        30.15R
CENTRAL PARK   CLOUDY    45  37  73 E6        30.17R
$$

NYZ005>009-017-018-044>046-055-056-300500-
CENTRAL


CITY           SKY/WX    TMP DP  RH WIND       PRES   REMARKS
FULTON         CLOUDY    50  43  77 NE3       30.15S
SYRACUSE       CLOUDY    48  43  82 SW3       30.15R
ROME           CLOUDY    47  43  86 W3        30.15S
ELMIRA         CLOUDY    44  41  89 E3        30.13F
BINGHAMTON     CLOUDY    39  37  92 CALM      30.13R
MONTICELLO     CLOUDY    37  37 100 NE3       30.16S
$$

NYZ026>034-041>043-087-300500-
NORTH


CITY           SKY/WX    TMP DP  RH WIND       PRES   REMARKS
WATERTOWN      MOCLDY    42  27  55 E3        30.16S
FORT DRUM      NOT AVBL
MASSENA        CLEAR     35  23  61 CALM      30.19R
SARANAC LAKE   CLOUDY    31  21  66 CALM      30.13R
PLATTSBURGH    CLOUDY    44  15  31 W5        30.17R
$$

NYZ001>004-010>016-019>021-085-300500-
WEST


CITY           SKY/WX    TMP DP  RH WIND       PRES   REMARKS
NIAGARA FALLS  CLEAR     38  31  76 W3        30.16R
BUFFALO        PTCLDY    44  32  62 W5        30.16R
DUNKIRK        CLOUDY    43  39  86 CALM      30.16R
JAMESTOWN      CLOUDY    41  37  87 NW7       30.13S
WELLSVILLE     CLOUDY    42  40  92 S3        30.13R
ROCHESTER      MOCLDY    47  38  71 CALM      30.14F
PENN YAN       CLOUDY    44  42  93 CALM      30.14F
$$

             KEY
       WCI = WIND CHILL INDEX
       VSB = VISIBILITY
       HX  = HEAT INDEX
$$



USA.gov is the U.S. government's official web portal to all federal, state and local government web resources and services.